When you browse on this site, cookies collect data to enhance your experience and personalize the content and advertising you see.
Visit our Privacy Policy to learn more. By continuing to use the site, you agree to this use of cookies and data.
  • Em Portugal
  • Lista de países
  • Para 7 dias
  • Temperatura da água
  • Mapas de satélite
  • Mapa do tempo
  • Widgets de tempo
  • user-avatar
    Iniciar Sessão

    Previsão horária em Vlora

    Hoje, 22 Janeiro, Terça-feira

    Tempo Temperatura Precipitação Vento Pressão Humidade
    00:00 +8°C° 0.1 mm 11 m/s 759 mmHg 88%
    01:00 +8°C° 0 mm 11 m/s 759 mmHg 88%
    02:00 +8°C° 0.6 mm 11 m/s 759 mmHg 90%
    03:00 +8°C° 0.6 mm 11 m/s 758 mmHg 92%
    04:00 +8°C° 0.6 mm 12 m/s 758 mmHg 94%
    05:00 +8°C° 1.1 mm 12 m/s 757 mmHg 94%
    06:00 +7°C° 1.1 mm 12 m/s 757 mmHg 94%
    07:00 +7°C° 0 mm 13 m/s 757 mmHg 93%
    08:00 +8°C° 0.3 mm 13 m/s 756 mmHg 92%
    09:00 +8°C° 0.3 mm 13 m/s 756 mmHg 92%
    10:00 +9°C° 0.3 mm 14 m/s 756 mmHg 91%
    11:00 +9°C° 0.2 mm 14 m/s 755 mmHg 91%
    12:00 +9°C° 0.2 mm 14 m/s 755 mmHg 92%
    13:00 +8°C° 0 mm 14 m/s 754 mmHg 97%
    14:00 +9°C° 0.7 mm 13 m/s 754 mmHg 97%
    15:00 +9°C° 0.7 mm 12 m/s 753 mmHg 97%
    16:00 +9°C° 0.7 mm 10 m/s 753 mmHg 96%
    17:00 +10°C° 1.5 mm 9 m/s 753 mmHg 96%
    18:00 +10°C° 1.5 mm 7 m/s 753 mmHg 95%
    19:00 +10°C° 1.5 mm 5 m/s 753 mmHg 94%
    20:00 +10°C° 0.6 mm 5 m/s 753 mmHg 94%
    21:00 +9°C° 0.6 mm 5 m/s 754 mmHg 95%
    22:00 +9°C° 0.6 mm 5 m/s 754 mmHg 96%
    23:00 +9°C° 0.1 mm 5 m/s 754 mmHg 96%

    Amanhã, 23 Janeiro, Quarta-feira

    Tempo Temperatura Precipitação Vento Pressão Humidade
    00:00 +10°C° 0.1 mm 4 m/s 754 mmHg 96%
    01:00 +10°C° 0.1 mm 4 m/s 754 mmHg 96%
    02:00 +9°C° 0.5 mm 5 m/s 753 mmHg 95%
    03:00 +9°C° 0.5 mm 6 m/s 753 mmHg 93%
    04:00 +9°C° 0.5 mm 6 m/s 753 mmHg 92%
    05:00 +9°C° 0.5 mm 6 m/s 753 mmHg 93%
    06:00 +9°C° 0.5 mm 7 m/s 752 mmHg 94%
    07:00 +9°C° 0.5 mm 7 m/s 752 mmHg 95%
    08:00 +9°C° 0.6 mm 6 m/s 752 mmHg 94%
    09:00 +9°C° 0.6 mm 6 m/s 752 mmHg 93%
    10:00 +9°C° 0.6 mm 6 m/s 752 mmHg 93%
    11:00 +9°C° 0.3 mm 6 m/s 751 mmHg 91%
    12:00 +10°C° 0.3 mm 6 m/s 750 mmHg 89%
    13:00 +10°C° 0.3 mm 6 m/s 749 mmHg 88%
    14:00 +10°C° 0.2 mm 4 m/s 749 mmHg 90%
    15:00 +10°C° 0.2 mm 3 m/s 748 mmHg 92%
    16:00 +10°C° 0.2 mm 1 m/s 748 mmHg 94%
    17:00 +10°C° 0.2 mm 1 m/s 747 mmHg 94%
    18:00 +10°C° 0.2 mm 1 m/s 747 mmHg 95%
    19:00 +9°C° 0.2 mm 2 m/s 747 mmHg 96%
    20:00 +9°C° 0.2 mm 2 m/s 747 mmHg 96%
    21:00 +9°C° 0.2 mm 2 m/s 746 mmHg 97%
    22:00 +9°C° 0.2 mm 3 m/s 746 mmHg 98%
    23:00 +9°C° 0.8 mm 3 m/s 745 mmHg 98%

    Depois de amanhã, 24 Janeiro, Quinta-feira

    Tempo Temperatura Precipitação Vento Pressão Humidade
    00:00 +9°C° 0.8 mm 3 m/s 745 mmHg 98%
    01:00 +7°C° 0.8 mm 4 m/s 744 mmHg 98%
    02:00 +8°C° 0.4 mm 3 m/s 744 mmHg 98%
    03:00 +8°C° 0.4 mm 3 m/s 744 mmHg 98%
    04:00 +8°C° 0.4 mm 2 m/s 743 mmHg 97%
    05:00 +8°C° 0.2 mm 2 m/s 743 mmHg 97%
    06:00 +8°C° 0.2 mm 2 m/s 743 mmHg 97%
    07:00 +9°C° 0.2 mm 1 m/s 744 mmHg 97%
    08:00 +9°C° 0 mm 1 m/s 744 mmHg 97%
    09:00 +9°C° 0 mm 1 m/s 744 mmHg 96%
    10:00 +10°C° 0 mm 1 m/s 744 mmHg 96%
    11:00 +9°C° 0 mm 2 m/s 744 mmHg 94%
    12:00 +10°C° 0 mm 2 m/s 744 mmHg 92%
    13:00 +10°C° 0 mm 3 m/s 743 mmHg 90%
    14:00 +10°C° 0 mm 4 m/s 743 mmHg 89%
    15:00 +10°C° 0 mm 4 m/s 743 mmHg 87%
    16:00 +9°C° 0 mm 5 m/s 743 mmHg 86%
    17:00 +8°C° 0 mm 5 m/s 743 mmHg 86%
    18:00 +8°C° 0 mm 5 m/s 743 mmHg 87%
    19:00 +7°C° 0 mm 6 m/s 743 mmHg 88%
    20:00 +7°C° 0.1 mm 6 m/s 742 mmHg 86%
    21:00 +7°C° 0.1 mm 5 m/s 742 mmHg 84%
    22:00 +7°C° 0.1 mm 5 m/s 742 mmHg 82%
    23:00 +7°C° 1.6 mm 6 m/s 742 mmHg 85%

    25 Janeiro, Sexta-feira

    Tempo Temperatura Precipitação Vento Pressão Humidade
    00:00 +6°C° 1.6 mm 7 m/s 742 mmHg 88%
    01:00 +5°C° 1.6 mm 8 m/s 743 mmHg 91%
    02:00 +5°C° 0 mm 8 m/s 742 mmHg 92%
    03:00 +5°C° 0 mm 8 m/s 742 mmHg 92%
    04:00 +5°C° 0 mm 8 m/s 742 mmHg 93%
    05:00 +5°C° 0.2 mm 8 m/s 742 mmHg 93%
    06:00 +4°C° 0.2 mm 7 m/s 743 mmHg 93%
    07:00 +4°C° 0.2 mm 7 m/s 743 mmHg 93%
    08:00 +5°C° 0 mm 6 m/s 743 mmHg 94%
    09:00 +7°C° 0 mm 5 m/s 743 mmHg 94%
    10:00 +8°C° 0 mm 3 m/s 743 mmHg 94%
    11:00 +8°C° 0 mm 4 m/s 743 mmHg 93%
    12:00 +10°C° 0 mm 4 m/s 743 mmHg 92%
    13:00 +10°C° 0 mm 4 m/s 743 mmHg 91%
    14:00 +9°C° 0 mm 5 m/s 743 mmHg 90%
    15:00 +9°C° 0 mm 6 m/s 742 mmHg 88%
    16:00 +9°C° 0 mm 7 m/s 742 mmHg 87%
    17:00 +8°C° 0 mm 7 m/s 743 mmHg 87%
    18:00 +8°C° 0 mm 7 m/s 743 mmHg 87%
    19:00 +6°C° 0 mm 7 m/s 744 mmHg 87%
    20:00 +6°C° 0 mm 7 m/s 744 mmHg 87%
    21:00 +6°C° 0 mm 7 m/s 744 mmHg 87%
    22:00 +6°C° 0 mm 7 m/s 745 mmHg 87%
    23:00 +5°C° 0 mm 7 m/s 745 mmHg 87%

    26 Janeiro, Sábado

    Tempo Temperatura Precipitação Vento Pressão Humidade
    00:00 +5°C° 0 mm 7 m/s 745 mmHg 86%
    01:00 +4°C° 0 mm 7 m/s 745 mmHg 86%
    02:00 +4°C° 0 mm 8 m/s 745 mmHg 86%
    03:00 +4°C° 0 mm 8 m/s 746 mmHg 86%
    04:00 +4°C° 0 mm 8 m/s 746 mmHg 86%
    05:00 +2°C° 0 mm 8 m/s 746 mmHg 86%
    06:00 +3°C° 0 mm 7 m/s 747 mmHg 86%
    07:00 +3°C° 0 mm 7 m/s 747 mmHg 86%
    08:00 +4°C° 0 mm 6 m/s 748 mmHg 84%
    09:00 +5°C° 0 mm 6 m/s 748 mmHg 82%
    10:00 +7°C° 0 mm 5 m/s 748 mmHg 80%
    11:00 +7°C° 0 mm 5 m/s 748 mmHg 79%
    12:00 +8°C° 0 mm 4 m/s 748 mmHg 79%
    13:00 +8°C° 0 mm 4 m/s 749 mmHg 78%
    14:00 +8°C° 0 mm 4 m/s 749 mmHg 80%
    15:00 +7°C° 0 mm 4 m/s 749 mmHg 81%
    16:00 +7°C° 0 mm 4 m/s 749 mmHg 83%
    17:00 +7°C° 0 mm 4 m/s 750 mmHg 84%
    18:00 +7°C° 0 mm 4 m/s 750 mmHg 85%
    19:00 +6°C° 0 mm 4 m/s 750 mmHg 85%
    20:00 +6°C° 0 mm 4 m/s 751 mmHg 85%
    21:00 +6°C° 0 mm 4 m/s 751 mmHg 86%
    22:00 +6°C° 0 mm 4 m/s 751 mmHg 86%
    23:00 +7°C° 0 mm 3 m/s 751 mmHg 86%

    27 Janeiro, Domingo

    Tempo Temperatura Precipitação Vento Pressão Humidade
    00:00 +7°C° 0 mm 3 m/s 751 mmHg 86%
    01:00 +7°C° 0 mm 3 m/s 751 mmHg 85%
    02:00 +7°C° 0 mm 3 m/s 751 mmHg 86%
    03:00 +7°C° 0 mm 3 m/s 751 mmHg 87%
    04:00 +6°C° 0 mm 4 m/s 751 mmHg 88%
    05:00 +7°C° 0 mm 3 m/s 751 mmHg 89%
    06:00 +7°C° 0 mm 3 m/s 751 mmHg 90%
    07:00 +5°C° 0 mm 3 m/s 752 mmHg 90%
    08:00 +7°C° 0 mm 3 m/s 752 mmHg 90%
    09:00 +7°C° 0 mm 3 m/s 752 mmHg 90%
    10:00 +8°C° 0 mm 3 m/s 752 mmHg 90%
    11:00 +7°C° 0 mm 4 m/s 752 mmHg 89%
    12:00 +8°C° 0 mm 4 m/s 752 mmHg 88%
    13:00 +8°C° 0 mm 4 m/s 752 mmHg 86%
    14:00 +8°C° 0 mm 4 m/s 752 mmHg 87%
    15:00 +8°C° 0 mm 4 m/s 752 mmHg 89%
    16:00 +7°C° 0 mm 4 m/s 752 mmHg 90%
    17:00 +7°C° 0 mm 4 m/s 753 mmHg 90%
    18:00 +7°C° 0 mm 4 m/s 753 mmHg 90%
    19:00 +7°C° 0 mm 3 m/s 753 mmHg 90%
    20:00 +7°C° 0 mm 3 m/s 754 mmHg 89%
    21:00 +7°C° 0 mm 2 m/s 754 mmHg 89%
    22:00 +7°C° 0 mm 2 m/s 754 mmHg 88%
    23:00 +8°C° 0 mm 1 m/s 755 mmHg 88%
    Mostrar mais